RH
67 69 71 73 76 81 79 84 84 83 84 86 89 93 92 90 89 46 36 27 35 72 74 19 17 15 13 13 12 11 15 14 10 10 9 7 9 8 9 10 11 12 17 20 25
65 65 66 68 75 79 81 85 85 85 83 85 86 89 94 90 57 40 32 56 69 70 23 18 20 17 16 15 13 15 15 13 8 8 9 8 9 9 10 9 11 14 21 20 29
69 66 65 66 69 74 79 86 85 86 85 83 86 87 90 82 54 31 39 52 58 57 23 17 16 16 20 15 15 16 18 12 10 9 8 9 9 9 11 10 9 11 21 23 31
75 72 69 68 67 71 79 83 86 86 86 86 84 87 89 71 42 29 66 70 60 26 23 23 20 21 20 21 14 17 13 12 10 10 10 9 9 10 10 10 8 11 13 21 28
79 77 74 71 69 70 78 80 80 83 87 87 85 87 84 90 46 29 60 60 34 30 24 24 24 21 22 18 16 17 15 12 12 11 11 11 11 11 11 9 8 10 12 16 23
78 79 79 75 73 72 74 78 80 79 81 89 87 88 82 94 33 22 21 27 25 28 25 22 22 18 18 18 17 15 14 14 11 13 12 14 14 12 11 9 9 10 11 11 16
72 78 79 80 77 76 74 78 80 80 78 82 88 89 88 76 41 36 37 20 25 23 24 21 18 17 17 18 14 14 17 15 14 13 14 12 15 14 11 9 10 10 11 11 12
71 74 81 80 81 81 82 82 82 75 73 79 84 90 92 42 41 41 40 27 20 22 23 19 18 19 19 16 17 18 18 21 14 14 13 14 17 12 10 10 10 11 10 11 10
71 71 78 81 84 84 86 84 81 71 72 72 85 90 88 54 55 45 40 42 24 27 28 23 24 25 22 24 25 22 24 21 16 11 14 16 17 11 8 10 11 10 11 11 10
68 72 74 78 82 83 85 84 67 65 55 49 67 90 71 60 44 52 58 51 40 30 33 36 31 34 28 25 30 27 24 19 17 12 12 14 15 12 9 9 10 10 10 10 11
64 71 74 76 78 81 71 45 41 56 64 54 50 70 40 55 69 65 55 79 65 45 40 38 42 38 26 24 21 17 18 18 15 11 13 16 15 12 10 10 10 10 9 10 10
61 68 72 74 77 78 65 66 52 58 77 38 46 49 54 43 82 70 74 97 95 91 37 36 50 27 20 19 22 21 19 16 13 14 15 16 17 12 10 10 10 11 10 10 10
60 66 70 75 79 68 58 57 47 49 84 48 34 35 34 50 71 58 77 86 92 86 62 42 35 26 24 21 21 22 22 20 16 14 15 17 20 16 12 9 10 10 10 10 11
60 64 73 79 66 53 49 40 36 55 94 46 28 31 30 49 77 49 64 89 90 90 71 51 26 27 30 29 23 27 17 18 18 18 21 19 27 17 12 12 11 12 12 12 11
62 62 72 74 58 54 43 37 50 61 93 23 20 20 27 66 37 51 49 81 93 89 86 85 44 30 31 26 22 24 18 20 23 23 21 18 23 18 13 12 11 11 11 12 13
67 67 71 46 50 45 48 56 73 94 80 28 20 30 44 48 52 39 67 76 75 93 89 91 52 42 31 24 20 19 24 24 26 28 37 25 21 17 14 12 10 9 8 9 9
71 72 65 42 49 41 61 78 97 88 31 24 26 40 38 50 59 56 66 96 98 100 100 87 92 69 53 50 26 22 35 66 66 54 53 25 23 18 13 10 10 10 9 10 10
73 74 57 43 38 46 79 95 94 46 43 24 22 19 23 41 82 77 60 94 90 94 98 97 97 85 68 64 44 32 38 80 71 59 42 27 28 18 12 11 11 11 11 12 12
73 44 44 43 48 70 95 97 70 41 58 40 25 26 19 25 52 85 94 61 79 88 97 98 97 70 70 57 48 50 50 39 53 39 40 27 23 18 14 12 11 12 13 14 14
47 40 39 44 54 80 99 90 50 31 31 34 46 31 43 28 36 43 88 96 97 96 100 92 92 77 68 65 68 76 45 71 79 100 93 30 28 24 19 16 14 15 15 15 15
51 54 40 58 77 98 97 85 50 29 26 32 35 39 33 34 36 47 43 54 95 97 87 100 100 74 78 95 91 96 96 89 80 90 66 45 28 18 17 16 16 16 16 16 16
51 96 56 61 94 100 99 62 61 48 30 36 36 43 39 32 32 33 35 35 55 51 88 100 100 98 84 56 61 72 82 93 98 99 66 48 36 15 17 16 16 16 15 15 16
79 68 37 53 95 93 53 50 61 68 61 51 44 36 37 38 42 31 29 23 30 49 78 76 97 91 59 59 72 96 95 95 94 75 72 77 48 19 19 18 17 19 19 24 23
73 97 88 80 54 59 58 58 56 59 53 45 47 46 46 55 40 42 39 36 39 39 61 68 91 91 92 99 98 99 99 100 99 100 86 57 35 21 19 20 18 24 29 28 27
81 96 62 92 97 63 45 52 51 52 34 45 71 52 49 56 50 50 36 36 32 38 34 58 82 86 89 79 61 65 66 76 99 93 94 50 38 25 26 25 21 25 27 29 32
99 97 65 65 51 56 52 55 46 38 62 55 57 50 45 56 48 60 46 51 47 38 43 43 79 68 72 47 46 51 41 43 45 69 82 56 52 35 31 28 26 22 23 23 20
55 46 79 70 63 68 62 46 39 35 55 42 39 59 91 82 55 47 45 46 44 52 56 65 86 74 71 43 50 67 49 39 38 34 43 53 38 32 32 32 32 35 37 34 28
Wind_Speed
14 14 15 14 13 10 11 12 15 18 19 21 23 22 14 12 13 19 23 17 5 5 5 14 14 15 17 18 19 11 15 15 19 15 9 9 13 9 3 10 9 13 3 5 19
14 14 15 15 14 13 10 8 11 15 17 19 21 23 23 12 19 28 23 14 6 6 16 18 17 16 15 17 13 16 14 19 14 5 9 10 14 12 13 16 10 10 6 8 17
13 13 14 15 15 15 13 7 8 11 15 17 18 22 21 17 20 32 25 26 19 14 20 18 17 18 21 18 19 20 21 17 10 6 8 9 11 12 12 16 15 17 17 15 15
14 14 13 14 15 15 14 10 9 8 11 14 17 19 24 12 13 11 9 2 22 24 22 22 21 23 24 25 23 24 21 23 16 8 12 13 13 17 14 17 11 6 4 18 18
15 14 15 14 15 15 14 13 12 10 9 11 14 16 9 12 25 7 4 3 12 23 26 25 26 25 28 25 24 25 23 18 18 14 13 12 14 16 18 18 16 11 8 13 17
17 17 16 16 15 15 15 14 13 11 10 8 11 12 5 21 13 20 11 11 10 19 26 26 23 25 23 29 26 24 21 23 20 17 18 15 16 16 20 19 19 16 15 17 18
17 16 18 16 16 17 17 15 14 13 12 9 7 8 10 25 22 30 30 21 18 15 19 25 27 22 27 25 25 24 25 18 25 19 19 18 21 22 24 15 19 22 17 17 18
17 17 15 15 16 18 17 15 14 16 14 11 7 10 12 13 17 26 26 21 21 19 18 15 21 23 25 22 21 23 23 27 24 21 19 19 20 23 24 20 20 19 19 19 20
18 17 16 15 16 16 17 16 16 18 17 13 6 7 14 13 15 17 21 24 18 19 16 15 13 21 22 23 21 24 27 32 26 26 23 25 24 23 18 22 22 21 22 21 21
18 18 17 16 16 16 17 19 20 16 14 11 8 2 8 14 11 12 12 21 23 20 19 20 15 19 21 21 31 26 31 24 27 26 27 25 28 20 18 21 22 21 21 23 23
18 19 17 18 18 17 16 13 10 8 13 15 11 15 18 7 9 9 12 11 14 24 31 30 24 26 37 36 27 27 29 29 26 24 23 27 28 25 25 19 16 21 21 22 23
18 18 18 19 20 19 13 8 7 6 13 18 26 29 25 11 8 19 7 7 13 21 31 26 28 38 35 31 33 32 31 31 24 19 23 20 27 25 26 25 23 22 21 21 21
18 18 19 18 21 15 9 14 8 12 8 21 28 26 24 25 18 30 6 5 9 29 30 33 42 38 30 36 34 33 32 30 26 21 19 17 24 27 26 27 25 25 23 23 22
17 18 17 18 15 9 12 5 6 3 8 16 11 10 21 15 15 29 12 7 6 25 33 26 36 34 32 36 31 34 35 28 29 23 20 24 23 27 29 29 27 28 27 26 26
17 17 16 13 13 12 13 10 9 5 9 2 4 4 4 19 2 9 24 14 15 13 14 16 30 40 33 42 37 36 24 28 26 23 26 24 23 24 26 30 33 33 32 31 29
17 17 16 14 7 14 11 10 5 6 12 6 4 8 9 21 25 3 9 15 8 24 29 18 22 26 34 30 33 32 23 22 23 20 21 33 27 31 25 33 28 29 29 29 29
16 16 16 13 13 13 8 5 5 8 11 7 3 2 11 14 25 24 18 14 9 5 7 11 22 16 26 29 28 27 16 9 12 13 18 32 23 32 11 31 38 30 24 24 23
18 19 14 11 11 10 4 3 10 11 11 17 26 21 24 6 3 15 23 14 20 10 2 8 8 18 12 23 36 34 29 9 17 21 28 23 16 46 32 28 6 4 11 12 16
21 11 10 10 8 3 4 8 8 16 8 15 17 19 17 5 3 8 10 19 4 18 13 6 6 4 20 19 23 33 27 32 10 15 22 21 38 41 28 29 33 25 21 22 25
10 12 13 3 3 6 5 16 16 18 14 16 20 15 21 15 12 9 6 7 10 13 18 7 13 12 16 19 13 10 25 24 12 9 10 20 33 26 25 29 24 19 18 20 18
10 6 5 5 4 3 7 10 19 21 21 18 19 21 23 24 19 18 3 4 2 8 11 8 3 7 15 11 12 4 6 5 8 7 14 19 23 19 25 15 17 21 19 17 14
7 5 4 2 5 3 8 13 7 23 15 15 16 17 20 19 19 17 14 8 11 2 5 5 5 5 10 13 19 17 9 8 7 8 12 13 14 12 4 5 6 4 6 7 5
5 9 10 3 7 9 14 18 11 10 14 11 19 16 16 17 15 9 9 4 8 6 4 4 4 7 6 11 13 1 1 10 9 8 22 14 11 9 14 7 7 6 2 7 1
4 5 4 3 9 16 15 13 14 9 12 13 20 14 17 15 16 11 18 6 11 9 14 6 2 7 9 9 7 4 8 6 6 3 5 19 23 7 5 10 11 6 6 6 5
4 5 8 5 7 13 16 15 20 20 17 13 8 20 18 18 17 16 14 8 12 5 4 9 7 8 11 13 13 15 13 6 3 5 7 24 26 23 3 13 3 12 10 10 7
4 4 7 12 16 17 17 17 19 21 10 12 16 20 15 18 17 16 18 15 11 13 2 4 5 6 12 11 13 17 16 13 14 11 18 23 24 22 23 19 17 12 6 12 5
7 11 7 8 14 14 15 20 21 16 13 14 17 14 14 15 16 15 16 18 17 16 16 7 4 5 9 9 10 13 18 16 17 18 20 21 18 16 19 15 18 20 17 16 13
Wind_Direction
343 345 343 341 344 339 342 344 346 341 338 338 340 340 296 293 291 267 250 245 291 169 221 242 215 218 229 229 229 239 256 245 243 220 245 159 213 171 274 270 205 183 330 85 148
337 337 335 332 332 331 324 332 338 337 339 338 338 335 340 300 285 267 258 253 218 191 228 219 214 214 223 225 219 230 233 242 276 242 238 185 221 209 214 216 209 192 127 149 152
324 328 331 330 327 326 329 300 318 328 334 336 335 332 333 310 280 268 234 218 210 201 240 245 238 225 229 225 209 219 240 237 254 268 248 222 224 253 239 248 212 191 170 170 171
321 319 322 324 324 322 322 318 286 298 321 330 333 334 330 266 240 58 42 26 209 208 229 237 242 233 232 232 225 231 239 240 263 226 245 232 228 234 229 255 256 109 150 174 184
336 316 313 314 316 316 315 316 303 289 300 323 330 339 351 247 234 145 106 125 183 205 217 221 227 224 231 230 238 228 242 245 238 250 228 242 244 251 250 238 255 179 203 214 193
353 348 320 308 310 310 309 308 307 293 293 302 321 327 274 278 255 264 231 229 230 203 214 219 226 226 237 234 233 232 239 250 248 225 235 233 237 240 248 245 238 226 216 222 201
346 343 344 324 311 308 303 301 299 295 274 281 298 292 262 254 296 306 304 234 237 233 226 221 220 228 225 235 238 247 248 244 241 219 233 232 236 230 246 242 232 233 216 227 209
342 341 339 335 326 316 301 291 290 289 278 249 264 280 255 282 285 284 286 262 242 250 245 246 227 235 244 233 245 237 236 243 228 218 231 233 240 218 234 234 228 232 222 220 222
341 339 338 334 332 319 314 292 282 275 269 258 244 214 263 303 263 251 256 265 224 227 239 249 240 228 226 227 235 224 227 227 236 218 215 211 240 243 241 214 225 226 222 222 219
340 339 332 334 332 326 315 290 271 261 237 242 239 321 239 251 290 295 289 253 247 228 214 223 218 213 219 208 220 210 224 238 231 226 228 225 231 244 233 231 220 223 218 221 224
338 337 336 332 326 323 313 307 272 215 224 242 219 227 274 266 301 267 282 245 247 244 207 205 210 207 209 216 228 235 231 227 232 241 224 220 246 224 238 225 227 222 219 216 224
331 334 332 333 321 313 293 278 316 321 292 260 245 252 237 250 275 261 310 242 199 212 220 207 213 220 218 214 223 228 237 238 235 219 230 234 244 242 240 226 219 213 231 220 217
328 329 329 328 314 289 286 283 316 324 264 279 250 248 232 221 231 256 198 289 216 216 218 214 209 216 220 225 225 224 230 231 241 206 238 239 253 250 251 243 230 236 226 224 228
322 325 326 329 284 325 299 307 329 337 270 272 249 248 223 189 242 228 217 253 239 213 213 237 229 211 220 229 225 230 219 233 238 235 223 194 248 241 237 239 235 233 231 231 234
317 321 322 318 295 296 314 335 316 252 279 360 294 96 214 187 101 213 209 219 243 260 191 212 225 223 213 219 222 235 229 222 237 241 241 232 236 246 245 241 231 230 227 226 224
314 316 321 291 269 276 323 305 278 239 250 269 241 210 201 204 236 308 172 208 227 240 262 264 242 247 237 229 223 228 232 237 226 231 237 239 239 260 241 244 245 239 236 234 233
315 312 301 291 277 308 331 280 250 241 328 276 342 346 295 234 229 235 234 205 188 194 223 237 249 262 241 244 241 226 198 203 219 220 224 228 228 244 279 228 240 237 234 235 239
311 303 279 269 280 286 307 256 250 275 244 305 298 297 295 7 214 235 227 234 221 218 326 208 221 219 220 219 210 218 197 188 192 203 225 217 219 237 225 248 307 212 253 255 250
307 286 285 270 243 221 216 228 253 263 338 328 317 304 276 190 311 14 317 234 237 207 221 248 242 212 227 229 212 209 221 207 248 226 223 218 223 256 249 235 236 239 234 241 241
303 297 278 45 256 184 230 238 257 246 305 325 306 293 300 322 325 321 40 27 3 24 357 237 250 212 212 236 256 253 205 207 218 195 219 211 217 239 222 236 241 241 242 238 239
280 291 325 24 140 205 234 252 257 256 268 284 281 295 303 303 313 308 354 19 105 332 335 339 305 209 163 206 178 143 204 215 188 231 209 231 230 230 228 195 200 204 226 232 219
286 279 106 111 282 236 252 259 299 271 263 236 279 288 296 304 303 296 286 255 178 52 339 32 312 272 241 183 210 205 219 179 203 177 243 247 261 142 354 214 162 272 228 208 226
279 277 279 321 261 263 273 280 257 255 253 270 272 279 270 287 292 291 300 39 96 84 331 39 41 320 217 202 176 212 52 358 333 270 215 216 230 247 233 238 185 189 148 91 102
288 279 265 225 274 285 290 299 301 299 287 286 284 260 266 264 277 275 309 290 303 278 145 169 257 246 299 359 349 319 346 47 12 265 230 227 238 231 186 179 206 94 99 121 132
255 249 262 277 267 284 291 288 293 296 295 285 288 244 252 268 273 286 298 325 329 51 209 178 232 244 293 286 291 285 295 310 307 308 272 236 242 239 128 352 203 136 146 128 127
254 251 270 279 284 282 281 277 283 282 333 305 304 285 269 258 261 283 302 309 312 311 49 157 259 307 272 257 274 283 283 269 257 238 265 268 268 278 287 304 287 214 312 304 245
252 261 264 268 276 278 278 283 281 269 285 276 299 294 304 295 286 281 288 289 293 283 283 277 285 294 269 272 278 280 252 254 251 247 247 261 267 279 293 302 304 313 321 314 329